Regional Weather Roundup
Issued by NWS Little Rock, AR

Home | Current Version | Previous Version | Text Only | Print | Product List | Glossary Off
Versions: 1 2 3 4 5 6 7 8 9 10 11 12 13 14 15 16 17 18 19 20 21 22 23 24 25 26 27 28 29 30 31 32 33 34 35 36 37 38 39 40 41 42 43 44 45 46 47 48 49 50

000
ASUS44 KLZK 020105
RWRLZK

WEATHER ROUNDUP FOR ARKANSAS
NATIONAL WEATHER SERVICE LITTLE ROCK AR
800 PM CDT MON JUN 01 2015

NOTE: "FAIR" INDICATES FEW OR NO CLOUDS BELOW 12,000 FEET WITH NO
SIGNIFICANT WEATHER AND/OR OBSTRUCTIONS TO VISIBILITY.

ARZ001-003-010-029-020200-
NORTHWEST ARKANSAS

CITY           SKY/WX    TMP DP  RH WIND       PRES   REMARKS
FAYETTEVILLE   MOCLDY    72  61  68 NE5       30.06R
FORT SMITH     CLEAR     80  56  43 CALM      30.01S
HARRISON       MOCLDY    68  59  73 E5        30.09S
BENTONVILLE    CLEAR     72  57  60 NE7       30.07S
ROGERS         CLEAR     69  60  73 NE7       30.08S HAZE
SILOAM SPGS    CLEAR     72  57  60 CALM      30.07S
HIGHFILL       CLEAR     71  61  70 N6        30.06S
SPRINGDALE     PTCLDY    72  61  68 NE5       30.08S
$$

ARZ004-005-016-020200-
NORTH CENTRAL ARKANSAS

CITY           SKY/WX    TMP DP  RH WIND       PRES   REMARKS
BATESVILLE     MOCLDY    66  59  77 NE5       30.08S
FLIPPIN        CLOUDY    68  59  73 NE6       30.07S
MTN HOME       CLOUDY    66  59  78 E5        30.08S
$$

ARZ040-041-020200-
WEST CENTRAL ARKANSAS

CITY           SKY/WX    TMP DP  RH WIND       PRES   REMARKS
MENA           CLOUDY    77  68  73 CALM      30.04S
MOUNT IDA      MOCLDY    73  65  75 CALM      30.03S
$$

ARZ009-017-025-026-028-020200-
NORTHEAST ARKANSAS

CITY           SKY/WX    TMP DP  RH WIND       PRES   REMARKS
CORNING          N/A     63  63 100 NE8       30.10F
JONESBORO      MOCLDY    66  59  78 N3        30.08S
NEWPORT        CLOUDY    69  61  76 NE8       30.09S
WALNUT RIDGE   CLEAR     66  59  77 NE12      30.09S
BLYTHEVILLE    CLOUDY    66  62  87 N13       30.09R
$$

ARZ022-023-033-042-044-020200-
CENTRAL ARKANSAS

CITY           SKY/WX    TMP DP  RH WIND       PRES   REMARKS
LITTLE ROCK    PTCLDY    72  61  68 E7        30.06R
N LITTLE ROCK  PTCLDY    72  65  79 E6        30.06R
JACKSONVILLE   PTCLDY    71  65  81 NE3       30.05S
SEARCY         CLOUDY    70  62  76 NE6       30.08S
HOT SPRINGS    CLEAR     74  63  68 SE5       30.04S
RUSSELLVILLE   CLOUDY    74  64  71 E3        30.04R
CLINTON        CLOUDY    68  64  88 CALM      30.09R
$$

ARZ036-020200-
EAST ARKANSAS

CITY           SKY/WX    TMP DP  RH WIND       PRES   REMARKS
WEST MEMPHIS   CLEAR     68  61  78 N6        30.06S
$$

ARZ050-053-066-070-073-020200-
SOUTHWEST ARKANSAS

CITY           SKY/WX    TMP DP  RH WIND       PRES   REMARKS
ARKADELPHIA    FAIR      76  71  84 CALM      30.04S
CAMDEN         CLEAR     75  63  64 CALM      30.03S
TEXARKANA      CLEAR     75  66  73 CALM      30.03S
EL DORADO      PTCLDY    73  65  75 NE3       30.04R
DE QUEEN       PTCLDY    77  66  68 S3        30.00S
$$

ARZ056-057-069-020200-
SOUTHEAST ARKANSAS

CITY           SKY/WX    TMP DP  RH WIND       PRES   REMARKS
PINE BLUFF     CLEAR     72  64  76 NE6       30.05S
STUTTGART      CLEAR     72  59  64 MISG      30.06S
MONTICELLO     CLEAR     72  66  81 CALM      30.04S

$$




USA.gov is the U.S. government's official web portal to all federal, state and local government web resources and services.